Location: Mascot Post Office (historical)
(40.2645°N, 99.5462°W)
Time: 02:22:37
(UTC+00:00)

Okean 1-7 - Pass Details

Date: 14 July 2020
Orbit: 591 x 618 km, 82.5° (Epoch: 14 August)

Event Time Altitude Azimuth Distance (km) Brightness Sun altitude
Rises 07:40:40 0° 357° (N) 2,901 7.7 -26.8°
Reaches altitude 10° 07:42:58 10° 3° (N) 1,991 6.6 -26.6°
Enters shadow 07:47:07 50° 72° (ENE) 792 3.7 -26.4°
